TimeMST,TemperatureF,Dew PointF,Humidity,Sea Level PressureIn,VisibilityMPH,Wind Direction,Wind SpeedMPH,Gust SpeedMPH,PrecipitationIn,Events,Conditions,WindDirDegrees,DateUTC
12:53 AM,27.0,6.1,41,29.97,10.0,SW,16.1,25.3,N/A,,Clear,220,2013-01-07 07:53:00
1:53 AM,28.0,6.1,39,29.97,10.0,SSW,13.8,-,N/A,,Clear,200,2013-01-07 08:53:00
2:53 AM,28.0,6.1,39,29.98,10.0,SSW,18.4,25.3,N/A,,Clear,210,2013-01-07 09:53:00
3:53 AM,26.1,6.1,43,29.99,10.0,SW,15.0,26.5,N/A,,Clear,220,2013-01-07 10:53:00
4:53 AM,25.0,5.0,43,30.01,10.0,SSW,16.1,-,N/A,,Clear,210,2013-01-07 11:53:00
5:53 AM,25.0,5.0,43,30.02,10.0,SSW,17.3,-,N/A,,Clear,210,2013-01-07 12:53:00
6:53 AM,24.1,3.9,42,30.05,10.0,SW,13.8,-,N/A,,Clear,230,2013-01-07 13:53:00
7:53 AM,23.0,5.0,46,30.07,10.0,SSW,21.9,-,N/A,,Clear,210,2013-01-07 14:53:00
8:53 AM,26.1,5.0,41,30.07,10.0,SW,19.6,29.9,N/A,,Clear,220,2013-01-07 15:53:00
9:53 AM,28.0,6.1,39,30.05,10.0,SSW,26.5,33.4,N/A,,Clear,210,2013-01-07 16:53:00
10:53 AM,30.9,7.0,37,30.03,10.0,SSW,24.2,36.8,N/A,,Clear,210,2013-01-07 17:53:00
11:53 AM,33.1,8.1,35,29.97,10.0,SW,24.2,31.1,N/A,,Clear,230,2013-01-07 18:53:00
12:53 PM,37.0,9.0,31,29.93,10.0,SW,20.7,25.3,N/A,,Clear,220,2013-01-07 19:53:00
1:53 PM,37.9,10.0,32,29.90,10.0,SW,20.7,32.2,N/A,,Clear,220,2013-01-07 20:53:00
2:53 PM,36.0,10.9,36,29.88,10.0,SW,21.9,32.2,N/A,,Clear,220,2013-01-07 21:53:00
3:53 PM,33.8,10.4,38,29.82,10.0,SW,16.1,-,N/A,,Clear,230,2013-01-07 22:53:00
4:53 PM,30.9,10.0,42,29.90,10.0,SW,11.5,-,N/A,,Clear,220,2013-01-07 23:53:00
5:53 PM,30.0,10.9,45,29.88,10.0,SW,12.7,-,N/A,,Clear,220,2013-01-08 00:53:00
6:53 PM,30.9,10.0,42,29.85,10.0,SSW,17.3,26.5,N/A,,Clear,210,2013-01-08 01:53:00
7:53 PM,30.9,10.9,43,29.86,10.0,SSW,21.9,28.8,N/A,,Clear,210,2013-01-08 02:53:00
8:53 PM,30.9,10.9,43,29.82,10.0,SW,27.6,34.5,N/A,,Clear,230,2013-01-08 03:53:00
9:53 PM,30.9,12.0,46,29.81,10.0,SW,24.2,31.1,N/A,,Partly Cloudy,220,2013-01-08 04:53:00
10:53 PM,30.0,12.0,47,29.80,10.0,SW,26.5,34.5,N/A,,Clear,220,2013-01-08 05:53:00
11:53 PM,28.9,12.9,51,29.80,10.0,SW,23.0,29.9,N/A,,Clear,220,2013-01-08 06:53:00